Location: Cantaing
(50.1487°N, 3.1675°E)
Time: 03:47:44
(UTC+00:00)

Cosmos 1844 Rocket - Pass Details

Date: 13 April 2026
Orbit: 825 x 842 km, 71.0° (Epoch: 11 May)

Event Time Altitude Azimuth Distance (km) Brightness Sun altitude
Rises 19:40:41 0° 317° (NW) 3,377 7.4 -10.1°
Reaches altitude 10° 19:44:13 10° 295° (WNW) 2,436 6.7 -10.6°
Maximum altitude 19:47:09 15° 263° (W) 2,114 5.6 -11.0°
Drops below altitude 10° 19:50:05 10° 231° (SW) 2,423 5.4 -11.4°
Sets 19:53:35 0° 208° (SSW) 3,350 5.8 -11.9°
